Location: Unspecified
(0.0000°N, 0.0000°E)
Time: 10:33:07
(UTC+00:00)

CZ-4C DEB - Visible Passes

Search period start: 11 March 2026 00:00
Search period end: 21 March 2026 00:00
Orbit: 807 x 1378 km, 63.4° (Epoch: 11 March)

Date Brightness Start Highest point End Pass type
(mag) Time Alt. Az. Time Alt. Az. Time Alt. Az.
11 Mar ? 19:32:11 10° N 19:39:34 37° ENE 19:40:16 36° ENE visible
11 Mar ? 21:22:49 10° NW 21:27:36 29° W 21:27:36 29° W visible
12 Mar ? 18:45:28 10° NNE 18:50:53 19° ENE 18:55:42 12° ESE visible
12 Mar ? 20:33:15 10° NW 20:41:23 62° WSW 20:43:04 53° SSW visible
13 Mar ? 19:44:30 10° NNW 19:52:42 76° ENE 19:59:20 19° SSE visible
13 Mar ? 21:39:00 10° W 21:43:27 15° WSW 21:46:48 12° SW visible
14 Mar ? 18:56:29 10° N 19:04:04 42° ENE 19:11:57 10° SE visible
14 Mar ? 20:47:37 10° WNW 20:54:38 30° WSW 21:01:48 10° S visible
15 Mar ? 19:57:51 10° NW 20:05:54 55° WSW 20:14:13 10° S visible
16 Mar ? 19:08:58 10° NNW 19:17:13 84° ENE 19:25:48 10° SSE visible
16 Mar ? 21:04:31 10° W 21:07:59 13° WSW 21:11:29 10° SW visible
17 Mar ? 18:20:47 10° N 18:28:33 47° ENE 18:36:39 10° SE visible
17 Mar ? 20:12:29 10° WNW 20:19:09 27° WSW 20:25:58 10° SSW visible
18 Mar ? 19:22:30 10° NW 19:30:24 49° WSW 19:38:34 10° S visible
19 Mar ? 18:33:27 10° NNW 18:41:43 87° WSW 18:50:18 10° SSE visible
19 Mar ? 20:30:38 10° WSW 20:32:32 11° WSW 20:34:27 10° SW visible
20 Mar ? 19:37:24 10° WNW 19:43:41 23° WSW 19:50:05 10° SSW visible
